| time (UTC) | temp C | wind direction | speed KPH | gust KPH | rain 1hr cm | rain 24hr cm | rain mn cm | humidity % | barometer mb |
| 20260506051120 | 18 | 344 | 0.0 | 1.6 | 0.00 | 0.00 | 0.00 | 55 | 1014.6 |
| 20260506050121 | 18 | 344 | 0.0 | 4.8 | 0.00 | 0.00 | 0.00 | 53 | 1014.4 |
| 20260506045116 | 19 | 344 | 0.0 | 1.6 | 0.00 | 0.00 | 0.00 | 51 | 1014.3 |
| 20260506044116 | 20 | 344 | 0.0 | 1.6 | 0.00 | 0.00 | 0.00 | 50 | 1014.1 |
| 20260506043123 | 20 | 344 | 0.0 | 1.6 | 0.00 | 0.00 | 0.00 | 49 | 1013.9 |
| 20260506042121 | 20 | 344 | 0.0 | 1.6 | 0.00 | 0.00 | 0.00 | 48 | 1013.8 |
| 20260506041609 | 21 | 344 | 0.0 | 0.0 | 0.00 | 0.00 | 0.00 | 47 | 1013.7 |
| 20260506040120 | 21 | 344 | 0.0 | 1.6 | 0.00 | 0.00 | 0.00 | 45 | 1013.6 |
| 20260506035114 | 22 | 344 | 0.0 | 4.8 | 0.00 | 0.00 | 0.00 | 44 | 1013.2 |
| 20260506034116 | 22 | 344 | 1.6 | 6.4 | 0.00 | 0.00 | 0.00 | 43 | 1013.0 |
| 20260506033115 | 22 | 341 | 1.6 | 8.0 | 0.00 | 0.00 | 0.00 | 42 | 1012.9 |
| 20260506031112 | 23 | 313 | 3.2 | 14.5 | 0.00 | 0.00 | 0.00 | 40 | 1012.6 |
| 20260506030107 | 24 | 355 | 3.2 | 12.9 | 0.00 | 0.00 | 0.00 | 39 | 1012.5 |
| 20260506025107 | 25 | 0 | 3.2 | 9.7 | 0.00 | 0.00 | 0.00 | 37 | 1012.2 |
| 20260506024114 | 25 | 5 | 3.2 | 9.7 | 0.00 | 0.00 | 0.00 | 36 | 1012.1 |
| 20260506023559 | 25 | 5 | 3.2 | 9.7 | 0.00 | 0.00 | 0.00 | 35 | 1012.0 |
| 20260506022113 | 26 | 9 | 3.2 | 9.7 | 0.00 | 0.00 | 0.00 | 33 | 1011.8 |
| 20260506021109 | 26 | 5 | 4.8 | 16.1 | 0.00 | 0.00 | 0.00 | 33 | 1011.8 |
| 20260506020609 | 26 | 350 | 3.2 | 12.9 | 0.00 | 0.00 | 0.00 | 32 | 1011.6 |
| 20260506014112 | 27 | 0 | 4.8 | 16.1 | 0.00 | 0.00 | 0.00 | 30 | 1011.5 |
| 20260506013611 | 28 | 9 | 3.2 | 20.9 | 0.00 | 0.00 | 0.00 | 31 | 1011.5 |
| 20260506012604 | 28 | 331 | 3.2 | 17.7 | 0.00 | 0.00 | 0.00 | 34 | 1011.5 |
| 20260506011114 | 28 | 11 | 3.2 | 14.5 | 0.00 | 0.00 | 0.00 | 34 | 1011.4 |
| 20260506010108 | 28 | 313 | 3.2 | 12.9 | 0.00 | 0.00 | 0.00 | 34 | 1011.4 |
| 20260506005112 | 28 | 271 | 3.2 | 12.9 | 0.00 | 0.00 | 0.00 | 34 | 1011.4 |
| 20260506004101 | 28 | 344 | 3.2 | 16.1 | 0.00 | 0.00 | 0.00 | 35 | 1011.3 |
| 20260506003101 | 28 | 273 | 3.2 | 9.7 | 0.00 | 0.00 | 0.00 | 36 | 1011.4 |
| 20260506002059 | 28 | 11 | 3.2 | 12.9 | 0.00 | 0.00 | 0.00 | 36 | 1011.4 |
| 20260506001101 | 28 | 211 | 3.2 | 12.9 | 0.00 | 0.00 | 0.00 | 37 | 1011.3 |
| 20260506000105 | 28 | 316 | 4.8 | 16.1 | 0.00 | 0.00 | 0.00 | 36 | 1011.4 |
| 20260505235541 | 28 | 15 | 3.2 | 16.1 | 0.00 | 0.00 | 0.00 | 38 | 1011.3 |
| 20260505234101 | 27 | 302 | 3.2 | 16.1 | 0.00 | 0.00 | 0.00 | 37 | 1011.4 |
| 20260505233106 | 27 | 313 | 3.2 | 9.7 | 0.00 | 0.00 | 0.00 | 36 | 1011.5 |
| 20260505232105 | 27 | 17 | 3.2 | 12.9 | 0.00 | 0.00 | 0.00 | 38 | 1011.6 |
| 20260505231055 | 28 | 273 | 3.2 | 16.1 | 0.00 | 0.00 | 0.00 | 37 | 1011.6 |
| 20260505230101 | 27 | 313 | 4.8 | 17.7 | 0.00 | 0.00 | 0.00 | 38 | 1011.7 |
| 20260505225057 | 27 | 323 | 3.2 | 17.7 | 0.00 | 0.00 | 0.00 | 37 | 1011.8 |
| 20260505223058 | 27 | 147 | 3.2 | 12.9 | 0.00 | 0.00 | 0.00 | 41 | 1012.1 |
| 20260505222054 | 26 | 317 | 3.2 | 12.9 | 0.00 | 0.00 | 0.00 | 39 | 1012.1 |
| 20260505221055 | 26 | 321 | 3.2 | 8.0 | 0.00 | 0.00 | 0.00 | 38 | 1012.3 |
| 20260505215100 | 26 | 40 | 4.8 | 12.9 | 0.00 | 0.00 | 0.00 | 36 | 1012.5 |
| 20260505214055 | 26 | 282 | 3.2 | 14.5 | 0.00 | 0.00 | 0.00 | 40 | 1012.7 |
| 20260505213550 | 25 | 303 | 3.2 | 12.9 | 0.00 | 0.00 | 0.00 | 42 | 1012.7 |
| 20260505212054 | 25 | 304 | 3.2 | 14.5 | 0.00 | 0.00 | 0.00 | 42 | 1012.8 |
| 20260505211054 | 25 | 313 | 3.2 | 8.0 | 0.00 | 0.00 | 0.00 | 43 | 1012.8 |
| 20260505210053 | 24 | 137 | 1.6 | 14.5 | 0.00 | 0.00 | 0.00 | 44 | 1013.0 |
| 20260505205053 | 23 | 61 | 3.2 | 16.1 | 0.00 | 0.00 | 0.00 | 44 | 1013.1 |
| 20260505204053 | 23 | 112 | 3.2 | 9.7 | 0.00 | 0.00 | 0.00 | 45 | 1013.2 |
| 20260505203052 | 22 | 355 | 3.2 | 8.0 | 0.00 | 0.00 | 0.00 | 47 | 1013.5 |
| 20260505202050 | 22 | 273 | 3.2 | 14.5 | 0.00 | 0.00 | 0.00 | 48 | 1013.7 |
| 20260505201049 | 22 | 34 | 4.8 | 14.5 | 0.00 | 0.00 | 0.00 | 50 | 1013.7 |
| 20260505200540 | 22 | 30 | 3.2 | 16.1 | 0.00 | 0.00 | 0.00 | 50 | 1013.9 |
| 20260505195053 | 22 | 297 | 3.2 | 12.9 | 0.00 | 0.00 | 0.00 | 49 | 1013.9 |
| 20260505194531 | 21 | 289 | 4.8 | 16.1 | 0.00 | 0.00 | 0.00 | 50 | 1013.9 |
| 20260505193050 | 22 | 322 | 3.2 | 14.5 | 0.00 | 0.00 | 0.00 | 49 | 1014.1 |
| 20260505192554 | 21 | 136 | 3.2 | 12.9 | 0.00 | 0.00 | 0.00 | 54 | 1014.1 |
| 20260505191046 | 21 | 298 | 3.2 | 16.1 | 0.00 | 0.00 | 0.00 | 54 | 1014.2 |
| 20260505190052 | 21 | 141 | 3.2 | 14.5 | 0.00 | 0.00 | 0.00 | 55 | 1014.2 |
| 20260505185534 | 20 | 349 | 3.2 | 9.7 | 0.00 | 0.00 | 0.00 | 56 | 1014.3 |
| 20260505184048 | 20 | 329 | 3.2 | 12.9 | 0.00 | 0.00 | 0.00 | 55 | 1014.4 |
| 20260505183047 | 20 | 355 | 4.8 | 16.1 | 0.00 | 0.00 | 0.00 | 56 | 1014.5 |
| 20260505182045 | 20 | 319 | 3.2 | 14.5 | 0.00 | 0.00 | 0.00 | 58 | 1014.5 |
| 20260505181048 | 19 | 279 | 1.6 | 8.0 | 0.00 | 0.00 | 0.00 | 62 | 1014.5 |
| 20260505180047 | 19 | 288 | 3.2 | 9.7 | 0.00 | 0.00 | 0.00 | 60 | 1014.6 |
| 20260505175526 | 18 | 10 | 1.6 | 8.0 | 0.00 | 0.00 | 0.00 | 60 | 1014.6 |
| 20260505174540 | 18 | 241 | 1.6 | 8.0 | 0.00 | 0.00 | 0.00 | 62 | 1014.6 |
| 20260505173046 | 18 | 119 | 3.2 | 9.7 | 0.00 | 0.00 | 0.00 | 64 | 1014.6 |
| 20260505172046 | 17 | 200 | 3.2 | 12.9 | 0.00 | 0.00 | 0.00 | 66 | 1014.7 |
| 20260505171042 | 17 | 243 | 1.6 | 6.4 | 0.00 | 0.00 | 0.00 | 67 | 1014.8 |
| 20260505170043 | 17 | 251 | 1.6 | 6.4 | 0.00 | 0.00 | 0.00 | 68 | 1014.8 |
| 20260505165051 | 16 | 279 | 1.6 | 8.0 | 0.00 | 0.00 | 0.00 | 70 | 1015.0 |
| 20260505164522 | 16 | 5 | 1.6 | 8.0 | 0.00 | 0.00 | 0.00 | 73 | 1015.0 |
| 20260505163037 | 15 | 26 | 1.6 | 6.4 | 0.00 | 0.00 | 0.00 | 73 | 1015.0 |
| 20260505162036 | 15 | 315 | 1.6 | 8.0 | 0.00 | 0.00 | 0.00 | 74 | 1015.0 |
| 20260505161037 | 15 | 331 | 1.6 | 4.8 | 0.00 | 0.00 | 0.00 | 78 | 1015.1 |
| 20260505153036 | 13 | 336 | 0.0 | 1.6 | 0.00 | 0.00 | 0.00 | 81 | 1015.0 |
| 20260505152044 | 13 | 336 | 0.0 | 1.6 | 0.00 | 0.00 | 0.00 | 82 | 1015.0 |
| 20260505151043 | 13 | 336 | 0.0 | 1.6 | 0.00 | 0.00 | 0.00 | 83 | 1014.9 |
| 20260505124027 | 12 | 318 | 1.6 | 6.4 | 0.00 | 0.00 | 0.00 | 83 | 1013.9 |
| 20260505123524 | 12 | 318 | 0.0 | 4.8 | 0.00 | 0.00 | 0.00 | 84 | 1013.8 |
| 20260505122505 | 12 | 318 | 1.6 | 4.8 | 0.00 | 0.00 | 0.00 | 84 | 1013.8 |
| 20260505121029 | 12 | 318 | 0.0 | 4.8 | 0.00 | 0.00 | 0.00 | 84 | 1013.7 |
| 20260505120027 | 12 | 318 | 1.6 | 6.4 | 0.00 | 0.00 | 0.00 | 84 | 1013.6 |
| 20260505115028 | 12 | 318 | 0.0 | 4.8 | 0.00 | 0.00 | 0.00 | 84 | 1013.5 |
| 20260505114025 | 12 | 318 | 0.0 | 4.8 | 0.00 | 0.00 | 0.00 | 85 | 1013.5 |
| 20260505113024 | 12 | 318 | 1.6 | 6.4 | 0.00 | 0.00 | 0.00 | 85 | 1013.4 |
| 20260505112028 | 12 | 319 | 1.6 | 8.0 | 0.00 | 0.00 | 0.00 | 86 | 1013.4 |
| 20260505111024 | 12 | 320 | 0.0 | 6.4 | 0.00 | 0.00 | 0.00 | 86 | 1013.2 |
| 20260505102026 | 12 | 294 | 0.0 | 1.6 | 0.00 | 0.00 | 0.00 | 81 | 1013.1 |
| 20260505101026 | 12 | 294 | 0.0 | 0.0 | 0.00 | 0.00 | 0.00 | 80 | 1013.0 |
| 20260505100027 | 12 | 294 | 0.0 | 1.6 | 0.00 | 0.00 | 0.00 | 80 | 1012.9 |
| 20260505095020 | 13 | 294 | 0.0 | 1.6 | 0.00 | 0.00 | 0.00 | 79 | 1013.0 |
| 20260505094026 | 13 | 294 | 0.0 | 1.6 | 0.00 | 0.00 | 0.00 | 79 | 1013.0 |
| 20260505093017 | 13 | 294 | 0.0 | 6.4 | 0.00 | 0.00 | 0.00 | 78 | 1013.0 |
| 20260505092015 | 13 | 294 | 1.6 | 6.4 | 0.00 | 0.00 | 0.00 | 78 | 1012.9 |
| 20260505091022 | 13 | 266 | 1.6 | 6.4 | 0.00 | 0.00 | 0.00 | 78 | 1012.9 |
| 20260505090020 | 13 | 263 | 0.0 | 4.8 | 0.00 | 0.00 | 0.00 | 77 | 1012.9 |
| 20260505085014 | 14 | 263 | 1.6 | 16.1 | 0.00 | 0.00 | 0.00 | 77 | 1012.9 |
| 20260505084018 | 14 | 288 | 1.6 | 12.9 | 0.00 | 0.00 | 0.00 | 77 | 1012.8 |
| 20260505083017 | 14 | 318 | 3.2 | 9.7 | 0.00 | 0.00 | 0.00 | 77 | 1012.8 |
| 20260505082018 | 14 | 0 | 3.2 | 12.9 | 0.00 | 0.00 | 0.00 | 77 | 1012.8 |
| 20260505081013 | 14 | 348 | 3.2 | 16.1 | 0.00 | 0.00 | 0.00 | 76 | 1012.7 |
| 20260505080445 | 15 | 344 | 3.2 | 16.1 | 0.00 | 0.00 | 0.00 | 76 | 1012.6 |
| 20260505075006 | 15 | 306 | 3.2 | 17.7 | 0.00 | 0.00 | 0.00 | 75 | 1012.6 |
| 20260505074013 | 15 | 312 | 3.2 | 9.7 | 0.00 | 0.00 | 0.00 | 75 | 1012.7 |
| 20260505073013 | 15 | 332 | 3.2 | 14.5 | 0.00 | 0.00 | 0.00 | 74 | 1012.6 |
| 20260505072008 | 15 | 318 | 3.2 | 17.7 | 0.00 | 0.00 | 0.00 | 74 | 1012.5 |
| 20260505071457 | 15 | 351 | 3.2 | 17.7 | 0.00 | 0.00 | 0.00 | 73 | 1012.4 |
| 20260505070459 | 15 | 315 | 3.2 | 16.1 | 0.00 | 0.00 | 0.00 | 73 | 1012.3 |
| 20260505065008 | 15 | 321 | 3.2 | 9.7 | 0.00 | 0.00 | 0.00 | 72 | 1012.2 |
| 20260505064002 | 16 | 345 | 3.2 | 9.7 | 0.00 | 0.00 | 0.00 | 71 | 1012.1 |
| 20260505063001 | 16 | 355 | 1.6 | 8.0 | 0.00 | 0.00 | 0.00 | 70 | 1012.0 |
| 20260505062002 | 16 | 355 | 3.2 | 9.7 | 0.00 | 0.00 | 0.00 | 69 | 1011.8 |
| 20260505061005 | 16 | 344 | 3.2 | 8.0 | 0.00 | 0.00 | 0.00 | 69 | 1011.7 |
| 20260505060440 | 17 | 313 | 1.6 | 8.0 | 0.00 | 0.00 | 0.00 | 68 | 1011.6 |